[[{"header":{"parameterUnit":"m.s-1","parameterCategory":1,"la1":30.2991,"la2":30.254,"lo1":-89.0895,"lo2":-89.0444,"dy":0.0017,"dx":0.0017,"nx":28,"ny":28,"refTime":"2024-05-22T09:00:00:Z","depth":0,"parameterNumber":2,"parameterNumberName":"U-component_of_WINDS"},"data":[0,0,0,0,0,0,0,0,0,0,0,0,0,0,0,0,0,0,0,0,0,0,0,0,0,0,0,0,0,0,0,0,0,0,0,0,0,0,0,0,0,0,0,0,0,0,0,0,0,0,0,0,0,0,0,0,0,0,-1.7367,-1.7368,0,-1.7424,-1.7424,-1.7425,-1.7417,-1.7416,-1.7415,-1.7414,-1.7474,-1.7477,-1.7479,0,0,0,0,0,0,0,0,0,0,0,0,0,-1.7254,-1.7256,-1.7367,-1.7368,-1.7368,-1.7423,-1.7424,-1.7425,-1.7417,-1.7416,-1.7415,-1.7414,-1.7473,-1.7476,-1.7479,0,0,0,0,0,0,0,0,0,0,0,0,0,-1.7306,-1.7257,-1.7367,-1.7371,-1.7372,-1.7423,-1.7424,-1.7425,-1.7417,-1.7416,-1.7415,-1.7413,-1.7472,-1.7476,-1.748,-1.7531,0,0,-1.7491,-1.7493,0,0,0,0,0,0,0,0,-1.7303,-1.731,-1.737,-1.7371,-1.7372,-1.7412,-1.7406,-1.7461,-1.7418,-1.74,-1.7414,-1.7413,-1.7455,-1.746,-1.7474,-1.7534,-1.7536,-1.7491,-1.7494,-1.7495,-1.7496,0,0,0,0,0,0,0,-1.73,-1.7308,-1.7389,-1.7371,-1.7372,-1.7371,-1.7377,-1.7417,-1.7435,-1.7402,-1.7401,-1.7408,-1.7455,-1.747,-1.7475,-1.7537,-1.7491,-1.7494,-1.7497,-1.7498,-1.7642,-1.7644,0,0,0,0,0,0,-1.7295,-1.7305,-1.7388,-1.7391,-1.7333,-1.7374,-1.7381,-1.74,-1.7434,-1.7438,-1.7409,-1.7407,-1.7464,-1.7471,-1.7477,-1.7539,-1.7495,-1.7499,-1.7501,-1.7641,-1.7643,-1.7644,0,0,0,0,0,0,-1.7292,-1.7302,-1.7385,-1.7348,-1.7358,-1.7377,-1.74,-1.7402,-1.7417,-1.744,-1.7443,-1.7421,-1.7463,-1.7472,-1.7517,-1.7541,-1.75,-1.7504,-1.7639,-1.7641,-1.7644,-1.7664,0,0,0,0,0,0,-1.7289,-1.7301,-1.7321,-1.7348,-1.736,-1.7424,-1.7401,-1.7404,-1.7423,-1.7422,-1.7452,-1.7456,-1.7463,-1.7512,-1.7521,-1.7545,-1.7507,-1.7637,-1.764,-1.7643,-1.7661,-1.7667,-1.7671,0,0,0,0,0,-1.7285,-1.7324,-1.7322,-1.7332,-1.7385,-1.7426,-1.7433,-1.744,-1.7425,-1.7445,-1.746,-1.7455,-1.7537,-1.7517,-1.7527,-1.7553,-1.7635,-1.7639,-1.7643,-1.7659,-1.7666,-1.7671,0,0,0,0,0,0,-1.73,-1.7328,-1.7325,-1.7375,-1.7398,-1.7424,-1.7449,-1.7447,-1.7475,-1.7472,-1.7481,-1.7488,-1.7534,-1.7548,-1.7525,-1.7604,-1.7584,-1.759,-1.7593,-1.76,-1.7605,-1.76,-1.751,0,0,0,0,0,-1.7308,-1.7339,-1.7362,-1.7404,-1.7415,-1.743,-1.7449,-1.7452,-1.7477,-1.7486,-1.7504,-1.7529,-1.756,-1.7581,-1.7611,-1.7663,-1.767,-1.7686,-1.7691,-1.7695,-1.77,-1.7729,-1.7737,-1.7656,-1.7656,-1.7656,0,0,-1.7327,-1.7347,-1.7365,-1.7407,-1.7425,-1.7457,-1.7439,-1.7473,-1.7497,-1.7492,-1.7536,-1.755,-1.7578,-1.7627,-1.765,-1.764,-1.7724,-1.77,-1.7703,-1.7706,-1.7734,-1.7741,-1.7748,-1.7659,-1.7658,-1.7658,0,0,-1.7378,-1.7395,-1.7431,-1.745,-1.7478,-1.7487,-1.7496,-1.7523,-1.7532,-1.7576,-1.7573,-1.7602,-1.7656,-1.7676,-1.7693,-1.7751,-1.7748,-1.7761,-1.7788,-1.7816,-1.7822,-1.7828,-1.7848,-1.7856,-1.7766,-1.7766,-1.7766,0,-1.7398,-1.7445,-1.7451,-1.7485,-1.7504,-1.75,-1.7537,-1.7555,-1.7592,-1.7605,-1.7594,-1.7661,-1.768,-1.7734,-1.7748,-1.7762,-1.7773,-1.7757,-1.782,-1.7826,-1.7831,-1.7851,-1.7859,-1.7767,-1.7767,-1.7767,-1.7767,0,-1.7468,-1.7501,-1.7527,-1.7561,-1.7583,-1.7619,-1.7631,-1.7652,-1.7654,-1.7665,-1.771,-1.7732,-1.7767,-1.778,-1.7782,-1.7834,-1.7827,-1.7818,-1.7798,-1.784,-1.7859,-1.7867,-1.7769,-1.7769,-1.7768,-1.7768,0,0,-1.7529,-1.7566,-1.7576,-1.7591,-1.7621,-1.7647,-1.7683,-1.7716,-1.7734,-1.776,-1.779,-1.7836,-1.7827,-1.7847,-1.7852,-1.7876,-1.7921,-1.7864,-1.7865,-1.7874,-1.7979,-1.7986,-1.7995,-1.7918,-1.792,-1.7921,-1.7977,0,-1.7583,-1.7645,-1.7651,-1.7707,-1.7738,-1.7735,-1.7766,-1.7788,-1.78,-1.7828,-1.7841,-1.7873,-1.7859,-1.7871,-1.7895,-1.791,-1.7942,-1.7906,-1.7947,-1.7949,-1.794,-1.8005,-1.8012,-1.8064,-1.7984,-1.7986,-1.7987,0,-1.7653,-1.768,-1.7738,-1.7764,-1.7777,-1.7805,-1.7836,-1.7862,-1.7888,-1.7894,-1.7916,-1.7917,-1.7955,-1.7934,-1.7986,-1.7961,-1.7978,-1.7988,-1.799,-1.7995,-1.797,-1.8011,-1.808,-1.8088,-1.7998,-1.7997,-1.7997,0,-1.7692,-1.7742,-1.7784,-1.7798,-1.7829,-1.7848,-1.7862,-1.7886,-1.7906,-1.7933,-1.7946,-1.7977,-1.7995,-1.8019,-1.8029,-1.8013,-1.8081,-1.806,-1.8088,-1.8088,-1.8102,-1.8101,-1.8176,-1.8113,-1.8113,-1.8113,-1.8113,0,-1.7751,-1.7787,-1.7802,-1.7828,-1.7868,-1.7876,-1.7916,-1.7929,-1.795,-1.7979,-1.7978,-1.8005,-1.8017,-1.8046,-1.8054,-1.8096,-1.8104,-1.8111,-1.8112,-1.8111,-1.811,-1.8122,-1.8119,-1.8115,-1.8115,-1.8114,-1.8114,0,-1.7801,-1.7813,-1.7858,-1.7883,-1.7891,-1.7919,-1.7942,-1.7967,-1.7977,-1.8014,-1.8023,-1.804,-1.8074,-1.8087,-1.8128,-1.8134,-1.8182,-1.8181,-1.8174,-1.8174,-1.8201,-1.8198,-1.8286,-1.8298,-1.8228,-1.8228,-1.8229,0,-1.7838,-1.7866,-1.7894,-1.7913,-1.7927,-1.7958,-1.7977,-1.7986,-1.8006,-1.8037,-1.8059,-1.8092,-1.812,-1.8175,-1.8191,-1.8223,-1.8223,-1.8251,-1.8228,-1.8225,-1.8223,-1.8222,-1.8225,-1.8256,-1.8257,-1.8257,-1.8258,0,-1.7903,-1.7907,-1.7935,-1.7965,-1.7988,-1.8012,-1.8036,-1.8051,-1.8063,-1.8087,-1.8121,-1.8142,-1.8184,-1.8218,-1.8251,-1.8266,-1.8264,-1.8265,-1.8273,-1.8272,-1.8266,-1.827,-1.8186,-1.8263,-1.8262,-1.8262,-1.8262,-1.8262,-1.7948,-1.7972,-1.7995,-1.8027,-1.8045,-1.8067,-1.8091,-1.8105,-1.8134,-1.8168,-1.8172,-1.8209,-1.8234,-1.8277,-1.8294,-1.8323,-1.8316,-1.8327,-1.833,-1.8333,-1.8335,-1.8261,-1.8329,-1.8329,-1.8329,-1.8329,-1.8329,0,-1.8012,-1.8027,-1.8055,-1.8088,-1.8112,-1.8108,-1.8133,-1.8154,-1.8187,-1.821,-1.8236,-1.8276,-1.8309,-1.8328,-1.8361,-1.8381,-1.8381,-1.8389,-1.8388,-1.8391,-1.834,-1.833,-1.8388,-1.8388,-1.8388,-1.8388,-1.8388,-1.8388,-1.8049,-1.8089,-1.8096,-1.8146,-1.8161,-1.8197,-1.8212,-1.8232,-1.825,-1.8294,-1.8321,-1.8333,-1.8355,-1.8389,-1.8419,-1.8424,-1.8436,-1.8445,-1.8449,-1.8401,-1.8395,-1.8389,-1.8379,-1.8447,-1.8447,-1.8498,-1.8498,-1.8498]},{"header":{"parameterUnit":"m.s-1","parameterCategory":1,"la1":30.2991,"la2":30.254,"lo1":-89.0895,"lo2":-89.0444,"dy":0.0017,"dx":0.0017,"nx":28,"ny":28,"refTime":"2024-05-22T09:00:00:Z","depth":0,"parameterNumber":3,"parameterNumberName":"V-component_of_WINDS"},"data":[0,0,0,0,0,0,0,0,0,0,0,0,0,0,0,0,0,0,0,0,0,0,0,0,0,0,0,0,0,0,0,0,0,0,0,0,0,0,0,0,0,0,0,0,0,0,0,0,0,0,0,0,0,0,0,0,0,0,4.6231,4.623,0,4.621,4.621,4.621,4.6116,4.6114,4.6112,4.611,4.6089,4.609,4.6092,0,0,0,0,0,0,0,0,0,0,0,0,0,4.6186,4.6188,4.6231,4.623,4.623,4.621,4.621,4.621,4.6117,4.6114,4.6112,4.6109,4.6088,4.609,4.6092,0,0,0,0,0,0,0,0,0,0,0,0,0,4.619,4.6188,4.6231,4.6181,4.6177,4.6211,4.621,4.621,4.6117,4.6114,4.6111,4.6108,4.6088,4.609,4.6092,4.6172,0,0,4.6099,4.61,0,0,0,0,0,0,0,0,4.619,4.6192,4.6189,4.6185,4.618,4.6163,4.6187,4.6197,4.6118,4.614,4.611,4.6106,4.6116,4.6116,4.6119,4.6171,4.617,4.6099,4.6101,4.6102,4.6102,0,0,0,0,0,0,0,4.619,4.6192,4.6223,4.6189,4.6183,4.6159,4.6156,4.6188,4.6147,4.6138,4.6131,4.613,4.6113,4.6117,4.6118,4.617,4.6099,4.6101,4.6103,4.6103,4.6281,4.6285,0,0,0,0,0,0,4.6197,4.6192,4.6223,4.6222,4.6177,4.6163,4.6159,4.6171,4.6146,4.6139,4.6133,4.6126,4.6115,4.6116,4.6117,4.6205,4.6102,4.6104,4.6105,4.6278,4.6282,4.6286,0,0,0,0,0,0,4.6196,4.62,4.6224,4.6205,4.6206,4.6167,4.6181,4.6173,4.6177,4.6142,4.6134,4.6145,4.6113,4.6114,4.6158,4.6203,4.6105,4.6107,4.6274,4.6279,4.6284,4.6385,0,0,0,0,0,0,4.6195,4.6201,4.6231,4.6207,4.6208,4.6266,4.6184,4.6175,4.6181,4.6172,4.6152,4.6145,4.611,4.6155,4.616,4.6204,4.6108,4.627,4.6276,4.6282,4.6377,4.6392,4.6406,0,0,0,0,0,4.6194,4.6261,4.6233,4.6237,4.6245,4.6269,4.627,4.6228,4.6185,4.6215,4.6192,4.6146,4.6198,4.6161,4.6165,4.6211,4.6267,4.6275,4.6282,4.637,4.6389,4.6405,0,0,0,0,0,0,4.6292,4.6257,4.6226,4.6287,4.6282,4.6253,4.6289,4.625,4.6257,4.6248,4.6196,4.6192,4.6243,4.6232,4.6191,4.6285,4.6224,4.6233,4.629,4.6308,4.6322,4.6322,4.611,0,0,0,0,0,4.6321,4.6344,4.6312,4.6369,4.6368,4.633,4.6339,4.6307,4.6299,4.6296,4.6277,4.6271,4.6286,4.6297,4.6308,4.6376,4.6368,4.6409,4.6424,4.6436,4.6443,4.6474,4.6491,4.6311,4.6311,4.6311,0,0,4.6381,4.6365,4.6382,4.6388,4.638,4.6404,4.6328,4.6357,4.6373,4.6301,4.634,4.6326,4.6316,4.6371,4.6394,4.6363,4.6491,4.6445,4.6455,4.6456,4.6484,4.6501,4.6516,4.6316,4.6315,4.6314,0,0,4.6501,4.6493,4.6537,4.653,4.6519,4.6493,4.6504,4.6481,4.6468,4.6507,4.6452,4.6471,4.6498,4.6492,4.6493,4.6608,4.6565,4.6614,4.6688,4.6719,4.6733,4.6745,4.6783,4.6798,4.6622,4.6622,4.6623,0,4.6576,4.661,4.6565,4.6596,4.6599,4.6535,4.6578,4.6574,4.6568,4.6571,4.6536,4.6567,4.6556,4.6607,4.6635,4.6639,4.6647,4.6615,4.6735,4.6746,4.6757,4.6793,4.6807,4.6628,4.6628,4.6627,4.6626,0,4.6701,4.6726,4.6763,4.6757,4.6764,4.6803,4.6762,4.6775,4.6743,4.672,4.6758,4.6743,4.6749,4.6759,4.6729,4.6805,4.6785,4.6744,4.6681,4.6781,4.6813,4.6827,4.6636,4.6634,4.6633,4.6631,0,0,4.6882,4.685,4.6864,4.6859,4.6841,4.6858,4.6892,4.6898,4.6908,4.6906,4.6931,4.6955,4.6915,4.6916,4.6884,4.6912,4.7,4.6866,4.6865,4.6888,4.7079,4.7109,4.7125,4.6972,4.6975,4.6977,4.7079,0,4.6994,4.705,4.7009,4.7071,4.7091,4.7029,4.7058,4.705,4.7029,4.7042,4.7019,4.7035,4.6984,4.6983,4.7008,4.6984,4.7037,4.6977,4.6993,4.6994,4.6994,4.7143,4.7174,4.7272,4.7092,4.7094,4.7096,0,4.7132,4.7134,4.7198,4.7172,4.7179,4.7206,4.7206,4.722,4.7209,4.7191,4.7192,4.7151,4.7181,4.7122,4.7161,4.7121,4.7125,4.7114,4.7117,4.7115,4.7049,4.7141,4.7302,4.7316,4.7116,4.7114,4.7113,0,4.7253,4.7272,4.7311,4.731,4.7283,4.7302,4.7292,4.7277,4.7282,4.7282,4.7284,4.7289,4.729,4.7294,4.7255,4.7216,4.7298,4.7237,4.7282,4.7283,4.73,4.7299,4.7461,4.7309,4.7309,4.7308,4.7308,0,4.738,4.7421,4.7365,4.7389,4.7432,4.7385,4.7428,4.7411,4.7398,4.7417,4.7365,4.7383,4.7333,4.7346,4.7316,4.7351,4.7353,4.7338,4.7329,4.7341,4.7342,4.7341,4.7332,4.7312,4.7311,4.7311,4.731,0,4.7522,4.7486,4.7525,4.7495,4.7489,4.7521,4.7495,4.7516,4.7491,4.7515,4.7518,4.748,4.7492,4.7454,4.7461,4.7441,4.7491,4.7472,4.7494,4.7487,4.7534,4.7529,4.7698,4.7717,4.7556,4.7558,4.7559,0,4.7604,4.7633,4.7606,4.7614,4.7606,4.7621,4.7625,4.758,4.7586,4.7574,4.7595,4.7603,4.7606,4.7628,4.76,4.7605,4.7584,4.7643,4.7584,4.7594,4.7581,4.7578,4.7579,4.7654,4.7656,4.7658,4.7659,0,4.7752,4.7732,4.774,4.7741,4.7747,4.7746,4.7742,4.7751,4.7702,4.7712,4.7723,4.7726,4.7732,4.7739,4.7737,4.7725,4.7683,4.7678,4.7688,4.7699,4.7709,4.7701,4.7524,4.7674,4.7673,4.7671,4.7671,4.767,4.7863,4.7885,4.7869,4.7878,4.787,4.7866,4.7882,4.7859,4.7868,4.7868,4.7842,4.7858,4.7843,4.7836,4.7828,4.7839,4.7811,4.7827,4.7831,4.7834,4.7841,4.771,4.7839,4.7838,4.7838,4.7838,4.7837,0,4.8006,4.7991,4.8001,4.7995,4.8002,4.7963,4.7955,4.7963,4.7978,4.7968,4.7972,4.7983,4.799,4.7962,4.7964,4.7978,4.7959,4.798,4.7977,4.7974,4.7867,4.7856,4.7995,4.7995,4.7995,4.7995,4.7995,4.7995,4.808,4.8114,4.8092,4.812,4.8106,4.8121,4.8119,4.8115,4.8106,4.8121,4.8125,4.8107,4.8089,4.8089,4.8093,4.8084,4.8086,4.8113,4.8098,4.7998,4.7982,4.7968,4.7957,4.8115,4.8115,4.8204,4.8205,4.8206]}]]